QPF
0.01 0.02 0.02 0.02 0.02 0.03 0.02 0.00 0.00 0.00 0.00 0.00 0.00 0.01 0.01 0.01 0.00 0.01 0.02 0.03 0.06 0.09 0.12 0.17 0.17 0.14 0.11 0.09 0.09 0.07 0.08 0.09 0.07 0.05 0.05 0.05 0.05 0.04 0.04 0.03 0.02 0.02 0.01 0.01 0.01 0.01 0.01 0.01 0.01
0.01 0.02 0.02 0.02 0.03 0.01 0.00 0.01 0.01 0.00 0.00 0.00 0.00 0.00 0.00 0.00 0.01 0.01 0.02 0.05 0.07 0.08 0.09 0.12 0.15 0.12 0.09 0.07 0.07 0.08 0.06 0.06 0.05 0.04 0.03 0.03 0.03 0.03 0.03 0.03 0.02 0.01 0.01 0.01 0.01 0.01 0.01 0.01 0.01
0.01 0.02 0.03 0.02 0.01 0.01 0.00 0.01 0.01 0.01 0.00 0.00 0.00 0.00 0.00 0.01 0.01 0.01 0.02 0.05 0.08 0.08 0.08 0.12 0.12 0.10 0.08 0.07 0.07 0.06 0.05 0.04 0.04 0.03 0.03 0.02 0.03 0.04 0.03 0.02 0.01 0.01 0.01 0.01 0.02 0.02 0.01 0.01 0.01
0.01 0.02 0.02 0.01 0.00 0.00 0.00 0.00 0.00 0.00 0.00 0.00 0.00 0.00 0.00 0.01 0.01 0.01 0.02 0.04 0.06 0.06 0.07 0.11 0.10 0.09 0.08 0.07 0.05 0.05 0.05 0.03 0.03 0.03 0.02 0.01 0.02 0.02 0.02 0.02 0.01 0.01 0.01 0.01 0.02 0.03 0.01 0.01 0.01
0.02 0.02 0.02 0.01 0.01 0.00 0.00 0.00 0.00 0.00 0.01 0.00 0.00 0.00 0.00 0.01 0.01 0.01 0.02 0.03 0.04 0.05 0.06 0.10 0.10 0.09 0.08 0.07 0.05 0.05 0.04 0.04 0.03 0.02 0.02 0.02 0.02 0.02 0.02 0.02 0.01 0.01 0.00 0.01 0.02 0.02 0.01 0.01 0.01
0.01 0.02 0.01 0.01 0.01 0.00 0.00 0.00 0.00 0.00 0.00 0.00 0.00 0.00 0.01 0.01 0.02 0.01 0.01 0.03 0.04 0.05 0.06 0.08 0.08 0.07 0.07 0.06 0.05 0.07 0.05 0.03 0.03 0.03 0.03 0.03 0.03 0.02 0.02 0.02 0.01 0.01 0.01 0.01 0.02 0.02 0.01 0.02 0.02
0.02 0.02 0.02 0.01 0.00 0.00 0.00 0.00 0.00 0.00 0.00 0.00 0.00 0.00 0.01 0.01 0.01 0.02 0.03 0.04 0.06 0.05 0.05 0.07 0.09 0.09 0.07 0.07 0.05 0.05 0.05 0.04 0.04 0.03 0.03 0.03 0.03 0.03 0.02 0.01 0.01 0.00 0.01 0.01 0.01 0.01 0.02 0.03 0.03
0.02 0.02 0.02 0.01 0.01 0.00 0.00 0.00 0.00 0.01 0.00 0.00 0.00 0.00 0.00 0.01 0.01 0.02 0.03 0.03 0.04 0.04 0.05 0.06 0.09 0.08 0.05 0.04 0.06 0.06 0.05 0.05 0.05 0.04 0.03 0.03 0.03 0.03 0.02 0.01 0.01 0.01 0.01 0.01 0.01 0.02 0.03 0.03 0.03
0.01 0.01 0.01 0.01 0.01 0.00 0.00 0.00 0.00 0.00 0.00 0.00 0.00 0.00 0.00 0.00 0.00 0.00 0.01 0.01 0.02 0.02 0.03 0.05 0.07 0.06 0.03 0.03 0.05 0.05 0.05 0.05 0.05 0.04 0.03 0.02 0.01 0.01 0.01 0.01 0.02 0.02 0.02 0.02 0.02 0.02 0.03 0.03 0.03
0.01 0.01 0.00 0.00 0.00 0.00 0.00 0.00 0.00 0.00 0.00 0.00 0.00 0.00 0.00 0.00 0.00 0.00 0.00 0.00 0.01 0.01 0.01 0.03 0.04 0.03 0.02 0.01 0.02 0.02 0.02 0.04 0.04 0.01 0.02 0.02 0.01 0.01 0.01 0.02 0.05 0.06 0.05 0.04 0.05 0.05 0.05 0.03 0.02
0.01 0.01 0.01 0.00 0.00 0.00 0.00 0.00 0.00 0.01 0.00 0.00 0.00 0.00 0.00 0.00 0.00 0.00 0.00 0.00 0.01 0.01 0.01 0.01 0.02 0.01 0.01 0.01 0.01 0.01 0.01 0.02 0.02 0.01 0.01 0.01 0.00 0.01 0.01 0.00 0.02 0.03 0.03 0.03 0.04 0.05 0.04 0.03 0.03
0.01 0.00 0.00 0.00 0.00 0.00 0.00 0.00 0.00 0.01 0.00 0.00 0.00 0.00 0.00 0.00 0.00 0.00 0.00 0.00 0.00 0.01 0.01 0.01 0.01 0.01 0.01 0.02 0.01 0.01 0.01 0.01 0.01 0.01 0.01 0.01 0.01 0.00 0.00 0.00 0.00 0.01 0.01 0.02 0.02 0.02 0.02 0.02 0.02
0.00 0.00 0.00 0.01 0.00 0.00 0.00 0.00 0.00 0.01 0.00 0.00 0.00 0.01 0.00 0.00 0.00 0.00 0.00 0.00 0.00 0.00 0.00 0.01 0.01 0.01 0.00 0.01 0.01 0.01 0.01 0.01 0.01 0.01 0.01 0.01 0.01 0.01 0.01 0.00 0.01 0.01 0.01 0.01 0.02 0.01 0.02 0.03 0.02
0.01 0.00 0.01 0.01 0.00 0.00 0.00 0.00 0.01 0.02 0.01 0.01 0.01 0.01 0.00 0.00 0.00 0.00 0.00 0.00 0.00 0.00 0.00 0.00 0.01 0.01 0.01 0.01 0.02 0.02 0.02 0.02 0.02 0.02 0.01 0.02 0.02 0.01 0.00 0.01 0.02 0.02 0.02 0.02 0.02 0.03 0.03 0.03 0.03
0.01 0.01 0.01 0.01 0.01 0.01 0.01 0.00 0.01 0.01 0.02 0.02 0.02 0.01 0.00 0.00 0.00 0.00 0.00 0.00 0.00 0.00 0.00 0.00 0.00 0.01 0.01 0.02 0.02 0.02 0.02 0.02 0.04 0.03 0.02 0.02 0.02 0.01 0.01 0.02 0.02 0.02 0.02 0.02 0.03 0.03 0.02 0.02 0.02
0.02 0.03 0.02 0.01 0.01 0.01 0.01 0.01 0.01 0.01 0.02 0.02 0.01 0.00 0.00 0.00 0.00 0.00 0.00 0.00 0.00 0.00 0.00 0.00 0.00 0.00 0.01 0.02 0.02 0.02 0.02 0.03 0.03 0.03 0.02 0.03 0.03 0.03 0.02 0.02 0.02 0.02 0.03 0.02 0.02 0.01 0.01 0.02 0.02
0.03 0.05 0.03 0.02 0.01 0.01 0.01 0.01 0.01 0.01 0.02 0.02 0.01 0.00 0.00 0.00 0.00 0.00 0.00 0.00 0.00 0.00 0.00 0.00 0.00 0.00 0.01 0.01 0.01 0.02 0.02 0.03 0.03 0.03 0.02 0.03 0.03 0.04 0.04 0.03 0.03 0.03 0.04 0.03 0.02 0.02 0.02 0.02 0.02
0.02 0.03 0.04 0.03 0.01 0.01 0.01 0.01 0.01 0.01 0.02 0.02 0.01 0.00 0.00 0.00 0.00 0.00 0.00 0.00 0.01 0.00 0.00 0.00 0.00 0.01 0.01 0.01 0.02 0.03 0.03 0.04 0.04 0.03 0.03 0.03 0.05 0.06 0.06 0.05 0.04 0.04 0.05 0.05 0.04 0.04 0.05 0.03 0.02
0.01 0.02 0.04 0.03 0.01 0.01 0.01 0.01 0.01 0.01 0.01 0.02 0.01 0.00 0.00 0.00 0.00 0.00 0.00 0.00 0.01 0.01 0.01 0.01 0.01 0.01 0.02 0.02 0.03 0.04 0.03 0.03 0.03 0.03 0.02 0.03 0.04 0.05 0.07 0.07 0.05 0.04 0.04 0.04 0.04 0.03 0.03 0.03 0.03
0.01 0.01 0.02 0.02 0.01 0.00 0.00 0.01 0.01 0.01 0.01 0.01 0.01 0.00 0.00 0.00 0.00 0.01 0.01 0.02 0.02 0.02 0.02 0.02 0.02 0.02 0.02 0.02 0.03 0.03 0.03 0.02 0.02 0.03 0.02 0.02 0.02 0.04 0.06 0.08 0.07 0.05 0.04 0.04 0.04 0.04 0.04 0.03 0.03
0.01 0.01 0.01 0.01 0.01 0.01 0.00 0.00 0.00 0.00 0.00 0.00 0.00 0.00 0.00 0.00 0.01 0.01 0.03 0.04 0.04 0.05 0.06 0.04 0.03 0.02 0.02 0.02 0.03 0.02 0.02 0.01 0.01 0.02 0.01 0.01 0.01 0.02 0.03 0.05 0.05 0.05 0.05 0.04 0.05 0.05 0.04 0.03 0.03
0.00 0.00 0.01 0.00 0.00 0.00 0.00 0.00 0.00 0.00 0.00 0.00 0.00 0.00 0.00 0.01 0.01 0.02 0.02 0.02 0.03 0.05 0.06 0.04 0.03 0.03 0.02 0.02 0.03 0.02 0.02 0.01 0.01 0.01 0.01 0.01 0.02 0.02 0.02 0.03 0.04 0.04 0.04 0.03 0.03 0.02 0.03 0.03 0.02
0.00 0.00 0.00 0.00 0.00 0.00 0.00 0.00 0.00 0.00 0.01 0.00 0.00 0.00 0.01 0.01 0.01 0.01 0.01 0.01 0.01 0.02 0.02 0.04 0.02 0.02 0.02 0.02 0.02 0.02 0.02 0.02 0.01 0.01 0.00 0.01 0.01 0.01 0.02 0.02 0.03 0.03 0.04 0.04 0.04 0.03 0.04 0.04 0.04
0.00 0.00 0.00 0.00 0.00 0.00 0.00 0.00 0.00 0.00 0.00 0.00 0.00 0.01 0.01 0.01 0.01 0.01 0.01 0.02 0.01 0.01 0.02 0.04 0.01 0.01 0.01 0.03 0.05 0.04 0.02 0.01 0.01 0.01 0.00 0.01 0.01 0.01 0.02 0.01 0.02 0.03 0.04 0.04 0.04 0.04 0.04 0.04 0.04
0.00 0.00 0.00 0.00 0.00 0.00 0.00 0.00 0.00 0.00 0.00 0.00 0.00 0.00 0.01 0.01 0.01 0.01 0.01 0.02 0.02 0.01 0.03 0.07 0.01 0.01 0.01 0.01 0.02 0.04 0.03 0.01 0.01 0.01 0.01 0.01 0.02 0.02 0.01 0.02 0.03 0.04 0.05 0.05 0.06 0.07 0.06 0.05 0.04
0.00 0.00 0.00 0.00 0.00 0.00 0.01 0.00 0.00 0.00 0.00 0.00 0.00 0.00 0.00 0.00 0.00 0.01 0.01 0.01 0.01 0.01 0.02 0.03 0.02 0.02 0.01 0.01 0.01 0.02 0.02 0.01 0.01 0.01 0.01 0.02 0.03 0.02 0.02 0.02 0.03 0.05 0.06 0.06 0.07 0.07 0.07 0.07 0.06
0.00 0.00 0.00 0.00 0.01 0.01 0.01 0.01 0.00 0.00 0.00 0.00 0.00 0.00 0.00 0.01 0.01 0.01 0.01 0.01 0.01 0.02 0.02 0.03 0.03 0.03 0.02 0.01 0.02 0.01 0.02 0.02 0.01 0.02 0.01 0.03 0.04 0.03 0.04 0.04 0.05 0.05 0.07 0.08 0.08 0.08 0.08 0.07 0.06
0.00 0.00 0.00 0.00 0.00 0.01 0.01 0.00 0.00 0.00 0.00 0.00 0.00 0.00 0.01 0.01 0.01 0.01 0.01 0.01 0.01 0.02 0.03 0.04 0.05 0.05 0.03 0.03 0.03 0.03 0.03 0.03 0.02 0.02 0.03 0.04 0.05 0.05 0.06 0.07 0.09 0.11 0.11 0.13 0.12 0.11 0.08 0.05 0.04
0.00 0.00 0.00 0.00 0.00 0.00 0.00 0.00 0.00 0.00 0.00 0.00 0.00 0.01 0.01 0.01 0.01 0.01 0.01 0.02 0.02 0.02 0.03 0.04 0.06 0.07 0.06 0.05 0.05 0.05 0.04 0.04 0.03 0.03 0.03 0.05 0.07 0.10 0.10 0.10 0.11 0.10 0.09 0.12 0.12 0.07 0.05 0.03 0.03
0.00 0.00 0.00 0.00 0.00 0.00 0.00 0.00 0.00 0.00 0.00 0.01 0.01 0.01 0.01 0.01 0.01 0.02 0.03 0.04 0.03 0.02 0.03 0.04 0.06 0.07 0.07 0.07 0.05 0.04 0.05 0.05 0.04 0.03 0.05 0.07 0.09 0.08 0.06 0.05 0.06 0.07 0.10 0.12 0.07 0.04 0.02 0.02 0.02
MSLP
1006.16 1006.99 1007.88 1008.67 1009.24 1009.50 1009.46 1009.15 1008.69 1008.23 1007.88 1007.74 1007.82 1008.09 1008.46 1008.80 1009.04 1009.09 1008.95 1008.67 1008.33 1008.01 1007.81 1007.76 1007.89 1008.16 1008.53 1008.92 1009.30 1009.64 1009.95 1010.26 1010.58 1010.96 1011.40 1011.90 1012.42 1012.93 1013.39 1013.78 1014.07 1014.30 1014.46 1014.59 1014.72 1014.87 1015.04 1015.23 1015.44
1006.59 1007.56 1008.50 1009.26 1009.73 1009.84 1009.60 1009.09 1008.45 1007.82 1007.35 1007.11 1007.14 1007.37 1007.73 1008.10 1008.38 1008.51 1008.47 1008.31 1008.10 1007.92 1007.84 1007.90 1008.11 1008.43 1008.82 1009.21 1009.58 1009.91 1010.20 1010.50 1010.82 1011.19 1011.63 1012.11 1012.61 1013.10 1013.54 1013.90 1014.17 1014.38 1014.54 1014.68 1014.81 1014.96 1015.13 1015.33 1015.53
1007.22 1008.26 1009.19 1009.86 1010.18 1010.11 1009.68 1008.99 1008.20 1007.46 1006.92 1006.65 1006.65 1006.87 1007.22 1007.60 1007.89 1008.06 1008.08 1008.01 1007.91 1007.84 1007.88 1008.05 1008.34 1008.72 1009.14 1009.55 1009.91 1010.23 1010.51 1010.79 1011.10 1011.46 1011.88 1012.35 1012.82 1013.28 1013.68 1014.01 1014.27 1014.47 1014.63 1014.78 1014.92 1015.08 1015.26 1015.46 1015.67
1007.95 1008.99 1009.84 1010.37 1010.50 1010.23 1009.63 1008.82 1007.95 1007.19 1006.65 1006.40 1006.42 1006.66 1007.00 1007.36 1007.64 1007.80 1007.85 1007.82 1007.79 1007.82 1007.96 1008.22 1008.59 1009.02 1009.47 1009.89 1010.25 1010.56 1010.83 1011.10 1011.40 1011.74 1012.15 1012.58 1013.03 1013.46 1013.84 1014.14 1014.39 1014.59 1014.75 1014.91 1015.08 1015.26 1015.45 1015.66 1015.88
1008.67 1009.64 1010.33 1010.66 1010.59 1010.14 1009.41 1008.53 1007.67 1006.97 1006.52 1006.36 1006.45 1006.73 1007.08 1007.41 1007.65 1007.77 1007.80 1007.78 1007.78 1007.86 1008.07 1008.39 1008.82 1009.29 1009.76 1010.18 1010.53 1010.83 1011.09 1011.35 1011.64 1011.98 1012.38 1012.80 1013.23 1013.64 1013.99 1014.29 1014.53 1014.73 1014.90 1015.08 1015.27 1015.47 1015.68 1015.90 1016.11
1009.27 1010.08 1010.56 1010.66 1010.37 1009.76 1008.95 1008.09 1007.31 1006.75 1006.47 1006.46 1006.67 1007.01 1007.37 1007.68 1007.86 1007.93 1007.91 1007.87 1007.87 1007.98 1008.22 1008.58 1009.04 1009.52 1009.98 1010.39 1010.73 1011.01 1011.25 1011.51 1011.80 1012.15 1012.54 1012.97 1013.39 1013.79 1014.14 1014.42 1014.66 1014.86 1015.05 1015.25 1015.46 1015.68 1015.90 1016.13 1016.34
1009.62 1010.21 1010.44 1010.29 1009.80 1009.08 1008.24 1007.45 1006.83 1006.47 1006.40 1006.58 1006.94 1007.37 1007.76 1008.05 1008.18 1008.19 1008.13 1008.06 1008.05 1008.17 1008.42 1008.79 1009.24 1009.71 1010.15 1010.53 1010.83 1011.08 1011.31 1011.57 1011.87 1012.23 1012.64 1013.08 1013.51 1013.91 1014.25 1014.53 1014.76 1014.97 1015.17 1015.38 1015.60 1015.84 1016.08 1016.31 1016.53
1009.66 1010.00 1009.97 1009.58 1008.93 1008.12 1007.31 1006.64 1006.21 1006.08 1006.24 1006.63 1007.14 1007.67 1008.10 1008.38 1008.50 1008.47 1008.38 1008.29 1008.29 1008.41 1008.66 1009.03 1009.46 1009.90 1010.29 1010.61 1010.87 1011.09 1011.31 1011.56 1011.88 1012.26 1012.69 1013.15 1013.59 1013.99 1014.33 1014.60 1014.82 1015.02 1015.22 1015.44 1015.68 1015.93 1016.18 1016.42 1016.64
1009.40 1009.50 1009.22 1008.63 1007.85 1007.01 1006.26 1005.72 1005.49 1005.59 1005.97 1006.54 1007.19 1007.80 1008.29 1008.58 1008.70 1008.68 1008.59 1008.53 1008.55 1008.69 1008.95 1009.31 1009.71 1010.10 1010.43 1010.70 1010.91 1011.09 1011.29 1011.54 1011.86 1012.27 1012.73 1013.20 1013.65 1014.05 1014.38 1014.64 1014.85 1015.04 1015.23 1015.44 1015.69 1015.95 1016.22 1016.46 1016.68
1008.92 1008.80 1008.32 1007.59 1006.73 1005.90 1005.23 1004.84 1004.78 1005.07 1005.62 1006.33 1007.08 1007.75 1008.27 1008.60 1008.75 1008.76 1008.73 1008.72 1008.80 1008.99 1009.27 1009.63 1010.00 1010.34 1010.62 1010.82 1010.98 1011.13 1011.30 1011.55 1011.88 1012.30 1012.78 1013.26 1013.72 1014.11 1014.43 1014.67 1014.86 1015.03 1015.20 1015.41 1015.66 1015.93 1016.21 1016.47 1016.70
1008.34 1008.07 1007.47 1006.66 1005.79 1005.00 1004.42 1004.16 1004.23 1004.64 1005.29 1006.06 1006.85 1007.55 1008.09 1008.45 1008.64 1008.72 1008.78 1008.86 1009.02 1009.27 1009.60 1009.96 1010.32 1010.62 1010.85 1011.00 1011.12 1011.23 1011.39 1011.63 1011.96 1012.38 1012.86 1013.35 1013.80 1014.18 1014.48 1014.70 1014.87 1015.02 1015.18 1015.38 1015.62 1015.90 1016.19 1016.47 1016.71
1007.85 1007.50 1006.85 1006.04 1005.20 1004.49 1004.01 1003.84 1004.00 1004.45 1005.11 1005.87 1006.63 1007.30 1007.82 1008.19 1008.43 1008.59 1008.74 1008.92 1009.18 1009.50 1009.88 1010.27 1010.62 1010.89 1011.09 1011.21 1011.30 1011.39 1011.53 1011.76 1012.09 1012.51 1012.97 1013.45 1013.88 1014.25 1014.53 1014.74 1014.89 1015.03 1015.19 1015.38 1015.63 1015.91 1016.21 1016.50 1016.75
1007.59 1007.23 1006.61 1005.86 1005.12 1004.51 1004.13 1004.02 1004.20 1004.63 1005.22 1005.89 1006.54 1007.12 1007.58 1007.93 1008.18 1008.40 1008.63 1008.91 1009.25 1009.64 1010.06 1010.47 1010.82 1011.10 1011.28 1011.40 1011.48 1011.56 1011.70 1011.93 1012.24 1012.63 1013.07 1013.52 1013.93 1014.28 1014.56 1014.76 1014.92 1015.06 1015.22 1015.43 1015.67 1015.96 1016.27 1016.56 1016.82
1007.67 1007.37 1006.84 1006.22 1005.61 1005.12 1004.82 1004.76 1004.92 1005.26 1005.72 1006.22 1006.70 1007.13 1007.47 1007.75 1007.98 1008.22 1008.49 1008.81 1009.20 1009.63 1010.08 1010.50 1010.86 1011.15 1011.35 1011.48 1011.58 1011.69 1011.83 1012.05 1012.34 1012.71 1013.11 1013.52 1013.90 1014.24 1014.51 1014.73 1014.91 1015.08 1015.27 1015.49 1015.75 1016.04 1016.35 1016.64 1016.90
1008.08 1007.88 1007.49 1007.02 1006.58 1006.23 1006.02 1005.98 1006.09 1006.31 1006.59 1006.88 1007.15 1007.38 1007.56 1007.72 1007.88 1008.08 1008.33 1008.65 1009.03 1009.46 1009.90 1010.32 1010.69 1010.99 1011.23 1011.41 1011.55 1011.70 1011.86 1012.08 1012.35 1012.67 1013.03 1013.40 1013.75 1014.07 1014.35 1014.60 1014.82 1015.04 1015.27 1015.53 1015.81 1016.11 1016.42 1016.70 1016.95
1008.75 1008.65 1008.42 1008.14 1007.88 1007.68 1007.58 1007.56 1007.61 1007.69 1007.77 1007.84 1007.87 1007.87 1007.86 1007.86 1007.90 1008.00 1008.17 1008.43 1008.75 1009.12 1009.52 1009.92 1010.29 1010.62 1010.91 1011.15 1011.36 1011.56 1011.76 1011.98 1012.23 1012.51 1012.81 1013.12 1013.44 1013.75 1014.05 1014.34 1014.62 1014.90 1015.19 1015.49 1015.80 1016.11 1016.41 1016.69 1016.93
1009.50 1009.52 1009.45 1009.37 1009.31 1009.28 1009.28 1009.30 1009.29 1009.24 1009.14 1008.98 1008.77 1008.54 1008.32 1008.14 1008.02 1007.98 1008.03 1008.16 1008.38 1008.66 1008.98 1009.33 1009.70 1010.06 1010.40 1010.73 1011.02 1011.29 1011.53 1011.76 1011.98 1012.21 1012.45 1012.71 1012.98 1013.28 1013.60 1013.93 1014.27 1014.62 1014.98 1015.32 1015.67 1015.99 1016.30 1016.57 1016.81
1010.14 1010.28 1010.39 1010.51 1010.66 1010.81 1010.94 1011.01 1010.98 1010.82 1010.55 1010.19 1009.76 1009.31 1008.88 1008.51 1008.22 1008.02 1007.91 1007.90 1007.97 1008.13 1008.35 1008.64 1008.99 1009.37 1009.78 1010.18 1010.56 1010.90 1011.19 1011.44 1011.64 1011.82 1011.99 1012.19 1012.42 1012.70 1013.02 1013.39 1013.79 1014.21 1014.62 1015.02 1015.39 1015.74 1016.06 1016.33 1016.56
1010.54 1010.79 1011.08 1011.42 1011.80 1012.15 1012.42 1012.56 1012.53 1012.30 1011.89 1011.35 1010.73 1010.09 1009.48 1008.93 1008.47 1008.11 1007.85 1007.68 1007.60 1007.61 1007.73 1007.94 1008.25 1008.65 1009.10 1009.57 1010.03 1010.45 1010.79 1011.05 1011.23 1011.36 1011.48 1011.61 1011.79 1012.04 1012.37 1012.76 1013.20 1013.67 1014.13 1014.57 1014.98 1015.35 1015.67 1015.96 1016.21
1010.63 1011.00 1011.48 1012.05 1012.66 1013.22 1013.66 1013.89 1013.87 1013.59 1013.08 1012.40 1011.63 1010.83 1010.06 1009.37 1008.77 1008.27 1007.86 1007.54 1007.32 1007.20 1007.19 1007.32 1007.58 1007.96 1008.43 1008.96 1009.48 1009.95 1010.33 1010.61 1010.78 1010.88 1010.94 1011.02 1011.16 1011.37 1011.69 1012.09 1012.55 1013.05 1013.54 1014.01 1014.44 1014.83 1015.17 1015.47 1015.75
1010.42 1010.93 1011.62 1012.43 1013.28 1014.06 1014.66 1014.99 1015.00 1014.69 1014.10 1013.31 1012.42 1011.50 1010.61 1009.81 1009.11 1008.50 1007.98 1007.54 1007.19 1006.94 1006.81 1006.83 1007.02 1007.36 1007.82 1008.36 1008.91 1009.42 1009.84 1010.13 1010.30 1010.38 1010.41 1010.45 1010.55 1010.74 1011.03 1011.42 1011.89 1012.39 1012.90 1013.38 1013.82 1014.21 1014.57 1014.90 1015.21
1010.04 1010.71 1011.62 1012.67 1013.77 1014.75 1015.51 1015.93 1015.97 1015.63 1014.98 1014.10 1013.11 1012.10 1011.14 1010.26 1009.50 1008.82 1008.23 1007.70 1007.24 1006.87 1006.62 1006.52 1006.60 1006.86 1007.27 1007.78 1008.32 1008.84 1009.27 1009.58 1009.76 1009.84 1009.87 1009.89 1009.97 1010.14 1010.42 1010.79 1011.25 1011.74 1012.24 1012.71 1013.14 1013.54 1013.90 1014.26 1014.61
1009.67 1010.51 1011.63 1012.92 1014.23 1015.41 1016.29 1016.78 1016.84 1016.46 1015.75 1014.80 1013.73 1012.66 1011.65 1010.74 1009.95 1009.24 1008.60 1008.01 1007.46 1006.97 1006.60 1006.36 1006.31 1006.44 1006.74 1007.17 1007.67 1008.16 1008.59 1008.91 1009.12 1009.22 1009.27 1009.32 1009.40 1009.57 1009.84 1010.21 1010.64 1011.11 1011.58 1012.04 1012.45 1012.84 1013.21 1013.58 1013.96
1009.47 1010.48 1011.79 1013.28 1014.77 1016.08 1017.05 1017.58 1017.63 1017.22 1016.44 1015.43 1014.31 1013.19 1012.16 1011.25 1010.46 1009.75 1009.08 1008.44 1007.82 1007.23 1006.71 1006.32 1006.10 1006.07 1006.22 1006.53 1006.94 1007.37 1007.78 1008.11 1008.35 1008.50 1008.60 1008.69 1008.82 1009.01 1009.29 1009.65 1010.07 1010.51 1010.96 1011.38 1011.77 1012.14 1012.50 1012.87 1013.28
1009.55 1010.70 1012.16 1013.79 1015.39 1016.78 1017.79 1018.32 1018.34 1017.87 1017.04 1015.98 1014.83 1013.70 1012.68 1011.78 1011.01 1010.31 1009.64 1008.97 1008.27 1007.58 1006.92 1006.36 1005.95 1005.73 1005.70 1005.85 1006.13 1006.48 1006.85 1007.18 1007.45 1007.66 1007.83 1007.99 1008.18 1008.42 1008.72 1009.09 1009.50 1009.93 1010.35 1010.74 1011.10 1011.45 1011.80 1012.17 1012.58
1009.92 1011.16 1012.71 1014.41 1016.05 1017.44 1018.43 1018.93 1018.90 1018.38 1017.52 1016.44 1015.28 1014.17 1013.17 1012.31 1011.57 1010.90 1010.23 1009.53 1008.77 1007.97 1007.17 1006.44 1005.84 1005.41 1005.19 1005.16 1005.30 1005.55 1005.86 1006.18 1006.47 1006.74 1006.98 1007.22 1007.47 1007.78 1008.12 1008.52 1008.93 1009.35 1009.75 1010.12 1010.46 1010.79 1011.11 1011.47 1011.88
1010.54 1011.82 1013.37 1015.04 1016.63 1017.97 1018.89 1019.31 1019.23 1018.69 1017.81 1016.74 1015.62 1014.56 1013.62 1012.81 1012.11 1011.47 1010.81 1010.08 1009.26 1008.37 1007.45 1006.56 1005.78 1005.16 1004.75 1004.54 1004.53 1004.66 1004.90 1005.18 1005.49 1005.79 1006.09 1006.40 1006.73 1007.09 1007.48 1007.90 1008.34 1008.76 1009.15 1009.51 1009.84 1010.14 1010.45 1010.79 1011.18
1011.31 1012.54 1014.01 1015.58 1017.05 1018.25 1019.06 1019.41 1019.28 1018.72 1017.88 1016.86 1015.82 1014.84 1013.98 1013.24 1012.60 1011.98 1011.32 1010.57 1009.71 1008.75 1007.73 1006.71 1005.79 1005.02 1004.44 1004.08 1003.92 1003.94 1004.09 1004.32 1004.60 1004.92 1005.24 1005.59 1005.97 1006.37 1006.80 1007.25 1007.70 1008.13 1008.53 1008.88 1009.21 1009.50 1009.80 1010.13 1010.49
1012.10 1013.22 1014.54 1015.92 1017.20 1018.23 1018.91 1019.16 1019.00 1018.48 1017.71 1016.80 1015.87 1015.01 1014.25 1013.59 1012.99 1012.40 1011.75 1010.99 1010.10 1009.09 1008.01 1006.92 1005.91 1005.03 1004.34 1003.86 1003.58 1003.49 1003.54 1003.69 1003.92 1004.20 1004.51 1004.86 1005.24 1005.65 1006.09 1006.55 1007.01 1007.45 1007.85 1008.22 1008.54 1008.84 1009.14 1009.45 1009.79
1012.82 1013.78 1014.89 1016.03 1017.08 1017.92 1018.45 1018.63 1018.47 1018.01 1017.35 1016.59 1015.81 1015.08 1014.43 1013.85 1013.30 1012.73 1012.08 1011.31 1010.41 1009.39 1008.30 1007.20 1006.15 1005.24 1004.48 1003.93 1003.56 1003.36 1003.31 1003.37 1003.51 1003.71 1003.95 1004.25 1004.59 1004.97 1005.39 1005.83 1006.28 1006.71 1007.12 1007.49 1007.82 1008.13 1008.42 1008.72 1009.04
Thickness
5811 5809 5804 5793 5774 5757 5753 5765 5774 5773 5772 5778 5781 5775 5766 5760 5755 5751 5767 5776 5776 5775 5775 5773 5772 5771 5770 5768 5767 5766 5765 5764 5763 5762 5762 5761 5760 5759 5758 5758 5757 5757 5756 5756 5755 5754 5753 5753 5752
5813 5809 5800 5786 5762 5743 5752 5771 5774 5777 5780 5784 5782 5775 5767 5763 5767 5767 5770 5774 5776 5775 5774 5772 5771 5769 5767 5766 5765 5765 5764 5762 5762 5761 5760 5759 5759 5758 5757 5757 5756 5756 5755 5755 5754 5753 5753 5751 5751
5814 5811 5793 5777 5761 5751 5760 5776 5779 5784 5789 5787 5778 5775 5768 5764 5769 5769 5773 5775 5774 5773 5772 5770 5769 5767 5766 5764 5764 5763 5762 5761 5761 5760 5759 5758 5758 5757 5757 5756 5755 5755 5755 5754 5753 5753 5752 5751 5750
5813 5802 5790 5773 5765 5773 5778 5783 5787 5785 5787 5787 5779 5770 5771 5776 5775 5775 5776 5775 5773 5771 5770 5769 5768 5766 5764 5763 5763 5762 5761 5760 5759 5759 5758 5758 5757 5756 5756 5755 5754 5754 5754 5753 5752 5752 5751 5751 5750
5811 5794 5777 5766 5772 5785 5793 5795 5793 5785 5783 5783 5779 5767 5765 5776 5780 5778 5776 5774 5772 5770 5769 5767 5766 5764 5763 5762 5762 5761 5760 5759 5758 5758 5757 5757 5756 5755 5755 5754 5754 5753 5753 5752 5752 5751 5751 5750 5749
5800 5789 5767 5760 5775 5790 5796 5800 5794 5787 5784 5784 5779 5768 5765 5776 5778 5776 5776 5773 5772 5769 5768 5766 5764 5763 5762 5761 5761 5760 5759 5758 5757 5757 5756 5756 5755 5754 5754 5753 5753 5752 5752 5752 5751 5751 5750 5750 5749
5796 5783 5771 5773 5776 5786 5797 5803 5795 5788 5784 5785 5785 5769 5767 5773 5778 5777 5775 5773 5770 5769 5767 5765 5763 5762 5761 5760 5759 5758 5757 5757 5756 5756 5755 5755 5755 5754 5753 5753 5752 5752 5752 5751 5751 5750 5750 5750 5749
5805 5787 5778 5777 5781 5788 5804 5805 5804 5797 5791 5798 5793 5774 5768 5775 5779 5777 5773 5770 5768 5767 5765 5764 5762 5761 5760 5759 5758 5757 5756 5755 5755 5755 5755 5755 5754 5754 5753 5752 5752 5752 5752 5751 5751 5751 5750 5749 5749
5810 5782 5773 5784 5790 5797 5808 5804 5806 5810 5801 5798 5798 5790 5787 5785 5781 5775 5769 5766 5764 5764 5763 5762 5761 5760 5759 5758 5757 5756 5755 5754 5754 5754 5754 5754 5753 5753 5752 5752 5752 5752 5752 5751 5751 5751 5750 5749 5749
5801 5778 5788 5806 5811 5809 5812 5809 5807 5802 5794 5792 5792 5792 5791 5785 5779 5773 5768 5765 5763 5762 5762 5762 5760 5759 5758 5757 5756 5755 5754 5754 5753 5753 5753 5753 5752 5752 5751 5751 5751 5752 5752 5751 5751 5750 5750 5749 5748
5803 5793 5807 5817 5823 5821 5814 5813 5814 5801 5790 5795 5793 5791 5789 5784 5779 5775 5771 5769 5767 5765 5763 5762 5760 5759 5757 5756 5755 5754 5753 5753 5753 5752 5752 5752 5752 5751 5751 5751 5751 5751 5751 5751 5751 5750 5749 5749 5748
5806 5811 5818 5823 5829 5824 5817 5815 5811 5807 5808 5815 5809 5802 5793 5785 5781 5778 5774 5772 5769 5766 5765 5763 5761 5759 5758 5756 5755 5754 5753 5753 5752 5752 5752 5751 5751 5751 5750 5750 5750 5750 5750 5751 5750 5749 5749 5749 5748
5811 5817 5825 5828 5828 5825 5822 5816 5813 5812 5818 5818 5810 5801 5794 5789 5785 5783 5780 5776 5772 5769 5767 5765 5763 5760 5759 5757 5756 5754 5754 5753 5753 5752 5752 5751 5751 5750 5750 5749 5749 5750 5750 5750 5750 5749 5749 5748 5748
5818 5820 5822 5825 5826 5825 5817 5815 5813 5812 5817 5812 5806 5799 5796 5792 5788 5784 5780 5777 5774 5772 5769 5767 5765 5763 5761 5758 5757 5756 5755 5754 5753 5753 5753 5752 5752 5751 5750 5750 5749 5749 5749 5749 5749 5749 5749 5748 5748
5822 5813 5814 5819 5821 5821 5818 5804 5808 5814 5814 5807 5802 5799 5796 5794 5791 5788 5785 5782 5779 5776 5773 5770 5768 5765 5763 5760 5759 5758 5756 5755 5755 5754 5754 5754 5753 5752 5751 5750 5749 5750 5749 5749 5748 5748 5748 5747 5748
5811 5798 5790 5807 5815 5817 5807 5788 5808 5814 5810 5803 5801 5799 5796 5794 5794 5792 5790 5786 5784 5780 5776 5773 5772 5768 5765 5763 5761 5760 5759 5757 5757 5756 5755 5755 5754 5753 5752 5751 5750 5750 5749 5748 5748 5747 5746 5746 5746
5786 5777 5782 5796 5811 5811 5802 5790 5806 5812 5808 5801 5801 5799 5797 5794 5794 5794 5793 5790 5787 5784 5779 5775 5774 5771 5768 5766 5764 5762 5761 5760 5758 5757 5757 5757 5756 5754 5753 5752 5751 5750 5749 5748 5747 5746 5745 5744 5744
5774 5777 5779 5785 5801 5802 5793 5791 5801 5807 5806 5802 5801 5800 5798 5796 5796 5797 5796 5794 5790 5787 5783 5779 5776 5773 5770 5767 5764 5763 5761 5760 5760 5759 5759 5758 5757 5756 5754 5752 5751 5750 5749 5747 5746 5745 5744 5743 5743
5786 5780 5777 5787 5803 5795 5789 5789 5796 5802 5802 5800 5799 5799 5799 5800 5802 5800 5798 5795 5792 5788 5785 5782 5778 5776 5772 5768 5764 5761 5761 5761 5761 5761 5760 5759 5758 5757 5755 5754 5752 5751 5749 5747 5746 5744 5743 5742 5742
5784 5775 5776 5787 5798 5793 5785 5787 5796 5801 5802 5804 5802 5801 5801 5801 5800 5800 5798 5796 5793 5790 5787 5785 5782 5780 5777 5773 5770 5767 5766 5764 5764 5764 5763 5761 5760 5758 5757 5755 5753 5752 5749 5748 5746 5744 5742 5741 5741
5778 5774 5777 5779 5786 5789 5783 5777 5787 5797 5803 5804 5806 5805 5804 5804 5802 5801 5800 5798 5795 5792 5790 5789 5786 5784 5781 5777 5773 5769 5766 5765 5764 5763 5763 5763 5761 5759 5757 5756 5754 5752 5750 5748 5746 5744 5742 5739 5739
5769 5786 5786 5782 5769 5759 5770 5749 5774 5786 5792 5799 5804 5805 5807 5807 5806 5804 5802 5799 5799 5798 5795 5792 5789 5786 5783 5780 5775 5771 5766 5764 5765 5765 5764 5764 5763 5761 5759 5757 5755 5753 5751 5749 5747 5745 5743 5740 5737
5781 5790 5784 5777 5764 5753 5757 5748 5759 5778 5780 5793 5803 5809 5811 5811 5810 5807 5806 5805 5803 5801 5798 5795 5790 5787 5785 5782 5779 5774 5771 5768 5767 5766 5764 5763 5763 5762 5760 5758 5756 5753 5751 5749 5747 5745 5743 5741 5738
5788 5778 5766 5754 5745 5733 5749 5744 5749 5767 5781 5793 5804 5810 5813 5813 5813 5810 5809 5806 5803 5802 5799 5795 5791 5788 5786 5783 5780 5776 5773 5769 5766 5765 5763 5763 5762 5761 5760 5758 5756 5754 5752 5749 5747 5746 5744 5742 5740
5776 5751 5727 5726 5716 5723 5746 5743 5752 5782 5794 5799 5803 5809 5813 5814 5812 5809 5806 5805 5802 5800 5798 5796 5792 5788 5786 5783 5780 5778 5775 5772 5768 5766 5764 5762 5761 5760 5759 5758 5755 5753 5752 5750 5748 5745 5743 5742 5740
5763 5751 5724 5713 5711 5721 5737 5736 5763 5790 5798 5803 5806 5809 5811 5811 5812 5811 5809 5807 5804 5801 5799 5797 5792 5788 5786 5783 5781 5779 5777 5774 5771 5769 5766 5764 5762 5761 5760 5758 5756 5754 5752 5750 5747 5745 5743 5742 5740
5757 5746 5750 5726 5720 5715 5723 5740 5765 5787 5791 5795 5799 5802 5804 5807 5809 5810 5809 5808 5805 5802 5800 5798 5793 5789 5785 5783 5780 5778 5776 5774 5772 5770 5767 5765 5763 5762 5760 5758 5756 5753 5751 5749 5746 5744 5743 5741 5739
5766 5749 5730 5718 5704 5703 5718 5730 5744 5769 5779 5787 5791 5794 5798 5802 5804 5806 5806 5806 5805 5803 5800 5797 5794 5790 5786 5782 5780 5778 5776 5774 5772 5769 5766 5764 5763 5761 5759 5756 5754 5752 5750 5748 5745 5743 5742 5739 5738
5751 5742 5727 5713 5713 5703 5702 5724 5764 5770 5778 5780 5785 5790 5793 5797 5800 5802 5803 5804 5802 5799 5796 5794 5791 5788 5784 5781 5779 5776 5774 5773 5770 5768 5766 5763 5761 5759 5756 5755 5752 5750 5748 5746 5744 5742 5741 5738 5736
5755 5743 5727 5718 5711 5705 5705 5725 5772 5773 5777 5778 5781 5785 5789 5792 5794 5796 5797 5797 5795 5793 5791 5789 5787 5785 5782 5780 5777 5774 5772 5769 5767 5765 5763 5761 5759 5757 5755 5752 5750 5747 5745 5744 5742 5740 5739 5737 5734